Time,TemperatureF,DewpointF,PressureIn,WindDirection,WindDirectionDegrees,WindSpeedMPH,WindSpeedGustMPH,Humidity,HourlyPrecipIn,Conditions,Clouds,dailyrainin,SolarRadiationWatts/m^2,SoftwareType,DateUTC
2013-05-03 00:00:00,46.1,35.7,30.35,South,177,1.0,1.0,67,0.00,,,0.00,0,Wunderground v.1.15,2013-05-03 05:00:00,
2013-05-03 00:10:00,46.0,35.7,30.35,East,84,1.0,1.0,67,0.00,,,0.00,0,Wunderground v.1.15,2013-05-03 05:10:00,
2013-05-03 00:15:00,45.9,35.9,30.35,ESE,121,1.0,1.0,68,0.00,,,0.00,0,Wunderground v.1.15,2013-05-03 05:15:00,
2013-05-03 00:20:00,45.8,35.8,30.35,SE,132,1.0,1.0,68,0.00,,,0.00,0,Wunderground v.1.15,2013-05-03 05:20:00,
2013-05-03 00:30:00,45.6,35.6,30.35,ESE,121,1.0,4.0,68,0.00,,,0.00,0,Wunderground v.1.15,2013-05-03 05:30:00,
2013-05-03 00:35:00,45.6,35.6,30.35,East,94,1.0,4.0,68,0.00,,,0.00,0,Wunderground v.1.15,2013-05-03 05:35:00,
2013-05-03 00:40:00,45.5,35.5,30.35,SSW,204,1.0,1.0,68,0.00,,,0.00,0,Wunderground v.1.15,2013-05-03 05:40:00,
2013-05-03 00:45:00,45.4,35.5,30.35,NE,53,1.0,1.0,68,0.00,,,0.00,0,Wunderground v.1.15,2013-05-03 05:45:00,
2013-05-03 00:50:00,45.2,35.3,30.35,East,99,1.0,2.0,68,0.00,,,0.00,0,Wunderground v.1.15,2013-05-03 05:50:00,
2013-05-03 00:55:00,45.1,35.5,30.34,SE,136,1.0,2.0,69,0.00,,,0.00,0,Wunderground v.1.15,2013-05-03 05:55:00,
2013-05-03 01:05:00,45.1,35.2,30.35,SE,131,1.0,3.0,68,0.00,,,0.00,0,Wunderground v.1.15,2013-05-03 06:05:00,
2013-05-03 01:10:00,44.9,35.3,30.35,South,182,1.0,1.0,69,0.00,,,0.00,0,Wunderground v.1.15,2013-05-03 06:10:00,
2013-05-03 01:15:00,44.9,35.3,30.34,SE,130,0.0,3.0,69,0.00,,,0.00,0,Wunderground v.1.15,2013-05-03 06:15:00,
2013-05-03 01:20:00,44.8,35.2,30.34,East,80,0.0,0.0,69,0.00,,,0.00,0,Wunderground v.1.15,2013-05-03 06:20:00,
2013-05-03 01:25:00,44.7,35.1,30.34,SW,221,0.0,1.0,69,0.00,,,0.00,0,Wunderground v.1.15,2013-05-03 06:25:00,
2013-05-03 01:35:00,44.5,35.3,30.34,ENE,60,0.0,1.0,70,0.00,,,0.00,0,Wunderground v.1.15,2013-05-03 06:35:00,
2013-05-03 01:40:00,44.4,35.2,30.34,SE,146,0.0,0.0,70,0.00,,,0.00,0,Wunderground v.1.15,2013-05-03 06:40:00,
2013-05-03 01:45:00,44.3,35.5,30.34,ESE,111,1.0,1.0,71,0.00,,,0.00,0,Wunderground v.1.15,2013-05-03 06:45:00,
2013-05-03 01:50:00,44.2,35.4,30.34,East,85,1.0,1.0,71,0.00,,,0.00,0,Wunderground v.1.15,2013-05-03 06:50:00,
2013-05-03 01:55:00,44.0,35.2,30.34,East,93,0.0,1.0,71,0.00,,,0.00,0,Wunderground v.1.15,2013-05-03 06:55:00,
2013-05-03 02:00:00,43.9,35.1,30.34,ESE,120,0.0,1.0,71,0.00,,,0.00,0,Wunderground v.1.15,2013-05-03 07:00:00,
2013-05-03 02:05:00,43.7,34.9,30.33,SE,127,0.0,1.0,71,0.00,,,0.00,0,Wunderground v.1.15,2013-05-03 07:05:00,
2013-05-03 02:10:00,43.6,34.8,30.33,ESE,103,0.0,0.0,71,0.00,,,0.00,0,Wunderground v.1.15,2013-05-03 07:10:00,
2013-05-03 02:15:00,43.5,35.1,30.33,SE,131,1.0,1.0,72,0.00,,,0.00,0,Wunderground v.1.15,2013-05-03 07:15:00,
2013-05-03 02:20:00,43.4,35.0,30.33,ESE,113,0.0,1.0,72,0.00,,,0.00,0,Wunderground v.1.15,2013-05-03 07:20:00,
2013-05-03 02:25:00,43.3,34.9,30.33,ESE,120,0.0,1.0,72,0.00,,,0.00,0,Wunderground v.1.15,2013-05-03 07:25:00,
2013-05-03 02:35:00,43.0,34.9,30.33,East,94,0.0,1.0,73,0.00,,,0.00,0,Wunderground v.1.15,2013-05-03 07:35:00,
2013-05-03 02:40:00,42.9,34.8,30.33,NW,313,0.0,1.0,73,0.00,,,0.00,0,Wunderground v.1.15,2013-05-03 07:40:00,
2013-05-03 02:45:00,42.7,35.0,30.33,ENE,74,0.0,1.0,74,0.00,,,0.00,0,Wunderground v.1.15,2013-05-03 07:45:00,
2013-05-03 02:50:00,42.6,34.9,30.33,SSW,192,0.0,0.0,74,0.00,,,0.00,0,Wunderground v.1.15,2013-05-03 07:50:00,
2013-05-03 02:55:00,42.5,34.5,30.33,SE,136,0.0,0.0,73,0.00,,,0.00,0,Wunderground v.1.15,2013-05-03 07:55:00,
2013-05-03 03:00:00,42.6,34.5,30.33,ESE,123,0.0,0.0,73,0.00,,,0.00,0,Wunderground v.1.15,2013-05-03 08:00:00,
2013-05-03 03:05:00,42.6,34.5,30.32,ESE,122,0.0,0.0,73,0.00,,,0.00,0,Wunderground v.1.15,2013-05-03 08:05:00,
2013-05-03 03:15:00,42.4,34.4,30.32,ESE,108,0.0,1.0,73,0.00,,,0.00,0,Wunderground v.1.15,2013-05-03 08:15:00,
2013-05-03 03:20:00,42.2,34.2,30.33,ESE,108,0.0,0.0,73,0.00,,,0.00,0,Wunderground v.1.15,2013-05-03 08:20:00,
2013-05-03 03:25:00,42.2,34.2,30.33,East,101,0.0,0.0,73,0.00,,,0.00,0,Wunderground v.1.15,2013-05-03 08:25:00,
2013-05-03 03:30:00,42.3,33.9,30.33,NE,51,0.0,1.0,72,0.00,,,0.00,0,Wunderground v.1.15,2013-05-03 08:30:00,
2013-05-03 03:35:00,42.4,34.0,30.32,SSE,147,0.0,1.0,72,0.00,,,0.00,0,Wunderground v.1.15,2013-05-03 08:35:00,
2013-05-03 03:40:00,42.5,33.8,30.32,SW,227,0.0,0.0,71,0.00,,,0.00,0,Wunderground v.1.15,2013-05-03 08:40:00,
2013-05-03 03:45:00,42.4,33.7,30.32,NNE,20,0.0,0.0,71,0.00,,,0.00,0,Wunderground v.1.15,2013-05-03 08:45:00,
2013-05-03 03:55:00,42.3,33.6,30.32,East,84,0.0,1.0,71,0.00,,,0.00,0,Wunderground v.1.15,2013-05-03 08:55:00,
2013-05-03 04:00:00,42.3,33.6,30.32,ESE,104,0.0,1.0,71,0.00,,,0.00,0,Wunderground v.1.15,2013-05-03 09:00:00,
2013-05-03 04:10:00,42.4,33.3,30.32,SE,125,1.0,1.0,70,0.00,,,0.00,0,Wunderground v.1.15,2013-05-03 09:10:00,
2013-05-03 04:15:00,42.4,33.3,30.32,East,101,1.0,1.0,70,0.00,,,0.00,0,Wunderground v.1.15,2013-05-03 09:15:00,
2013-05-03 04:20:00,42.4,33.3,30.32,SSW,203,0.0,1.0,70,0.00,,,0.00,0,Wunderground v.1.15,2013-05-03 09:20:00,
2013-05-03 04:25:00,42.4,33.3,30.32,NW,314,0.0,1.0,70,0.00,,,0.00,0,Wunderground v.1.15,2013-05-03 09:25:00,
2013-05-03 04:30:00,42.4,33.3,30.32,East,101,1.0,1.0,70,0.00,,,0.00,0,Wunderground v.1.15,2013-05-03 09:30:00,
2013-05-03 04:40:00,42.3,33.6,30.32,South,180,0.0,1.0,71,0.00,,,0.00,0,Wunderground v.1.15,2013-05-03 09:40:00,
2013-05-03 04:50:00,42.0,33.3,30.32,SSE,150,0.0,1.0,71,0.00,,,0.00,0,Wunderground v.1.15,2013-05-03 09:50:00,
2013-05-03 04:55:00,41.9,33.5,30.32,SSW,200,1.0,1.0,72,0.00,,,0.00,0,Wunderground v.1.15,2013-05-03 09:55:00,
2013-05-03 05:00:00,41.7,33.3,30.32,East,98,0.0,0.0,72,0.00,,,0.00,0,Wunderground v.1.15,2013-05-03 10:00:00,
2013-05-03 05:05:00,41.6,33.2,30.32,NNE,28,0.0,0.0,72,0.00,,,0.00,0,Wunderground v.1.15,2013-05-03 10:05:00,
2013-05-03 05:10:00,41.5,33.1,30.32,ENE,71,1.0,1.0,72,0.00,,,0.00,0,Wunderground v.1.15,2013-05-03 10:10:00,
2013-05-03 05:20:00,41.6,32.9,30.32,East,82,1.0,1.0,71,0.00,,,0.00,0,Wunderground v.1.15,2013-05-03 10:20:00,
2013-05-03 05:25:00,41.5,32.8,30.32,SE,127,1.0,5.0,71,0.00,,,0.00,0,Wunderground v.1.15,2013-05-03 10:25:00,
2013-05-03 05:30:00,41.6,32.5,30.32,SE,144,1.0,1.0,70,0.00,,,0.00,0,Wunderground v.1.15,2013-05-03 10:30:00,
2013-05-03 05:35:00,41.5,32.4,30.32,SE,134,1.0,1.0,70,0.00,,,0.00,0,Wunderground v.1.15,2013-05-03 10:35:00,
2013-05-03 05:40:00,41.5,32.4,30.32,NNE,13,1.0,1.0,70,0.00,,,0.00,0,Wunderground v.1.15,2013-05-03 10:40:00,
2013-05-03 05:45:00,41.5,32.4,30.32,SSE,155,0.0,1.0,70,0.00,,,0.00,0,Wunderground v.1.15,2013-05-03 10:45:00,
2013-05-03 05:50:00,41.4,32.3,30.32,East,92,0.0,1.0,70,0.00,,,0.00,0,Wunderground v.1.15,2013-05-03 10:50:00,
2013-05-03 05:55:00,41.4,32.3,30.33,ESE,114,0.0,1.0,70,0.00,,,0.00,0,Wunderground v.1.15,2013-05-03 10:55:00,
2013-05-03 06:00:00,41.3,32.2,30.33,East,98,0.0,0.0,70,0.00,,,0.00,0,Wunderground v.1.15,2013-05-03 11:00:00,
2013-05-03 06:10:00,41.2,32.2,30.33,East,80,0.0,0.0,70,0.00,,,0.00,0,Wunderground v.1.15,2013-05-03 11:10:00,
2013-05-03 06:15:00,41.1,32.1,30.33,SE,143,0.0,0.0,70,0.00,,,0.00,0,Wunderground v.1.15,2013-05-03 11:15:00,
2013-05-03 06:20:00,41.1,31.7,30.33,WSW,241,0.0,1.0,69,0.00,,,0.00,0,Wunderground v.1.15,2013-05-03 11:20:00,
2013-05-03 06:25:00,41.2,31.8,30.33,ESE,121,0.0,1.0,69,0.00,,,0.00,0,Wunderground v.1.15,2013-05-03 11:25:00,
2013-05-03 06:35:00,41.3,31.5,30.33,ENE,67,0.0,0.0,68,0.00,,,0.00,0,Wunderground v.1.15,2013-05-03 11:35:00,
2013-05-03 06:40:00,41.3,31.5,30.33,ENE,78,0.0,0.0,68,0.00,,,0.00,0,Wunderground v.1.15,2013-05-03 11:40:00,
2013-05-03 06:45:00,41.3,31.5,30.33,SSE,147,0.0,0.0,68,0.00,,,0.00,0,Wunderground v.1.15,2013-05-03 11:45:00,
2013-05-03 06:50:00,41.1,31.7,30.33,ENE,73,0.0,0.0,69,0.00,,,0.00,7,Wunderground v.1.15,2013-05-03 11:50:00,
2013-05-03 06:55:00,40.9,31.5,30.33,ENE,73,0.0,0.0,69,0.00,,,0.00,11,Wunderground v.1.15,2013-05-03 11:55:00,
2013-05-03 07:05:00,40.8,31.4,30.33,East,85,0.0,0.0,69,0.00,,,0.00,18,Wunderground v.1.15,2013-05-03 12:05:00,
2013-05-03 07:10:00,41.0,31.6,30.34,ESE,102,0.0,0.0,69,0.00,,,0.00,25,Wunderground v.1.15,2013-05-03 12:10:00,
2013-05-03 07:15:00,41.3,31.5,30.34,SSE,164,0.0,0.0,68,0.00,,,0.00,37,Wunderground v.1.15,2013-05-03 12:15:00,
2013-05-03 07:20:00,41.9,31.7,30.34,WSW,238,0.0,0.0,67,0.00,,,0.00,51,Wunderground v.1.15,2013-05-03 12:20:00,
2013-05-03 07:25:00,42.5,31.9,30.34,SE,146,0.0,0.0,66,0.00,,,0.00,67,Wunderground v.1.15,2013-05-03 12:25:00,
2013-05-03 07:30:00,43.2,31.8,30.34,SE,144,1.0,1.0,64,0.00,,,0.00,83,Wunderground v.1.15,2013-05-03 12:30:00,
2013-05-03 07:35:00,43.8,32.4,30.35,SW,235,1.0,1.0,64,0.00,,,0.00,98,Wunderground v.1.15,2013-05-03 12:35:00,
2013-05-03 07:40:00,44.3,32.1,30.35,East,83,1.0,1.0,62,0.00,,,0.00,120,Wunderground v.1.15,2013-05-03 12:40:00,
2013-05-03 07:45:00,44.7,32.1,30.34,East,85,1.0,2.0,61,0.00,,,0.00,141,Wunderground v.1.15,2013-05-03 12:45:00,
2013-05-03 07:50:00,45.2,31.7,30.34,SW,214,1.0,1.0,59,0.00,,,0.00,162,Wunderground v.1.15,2013-05-03 12:50:00,
2013-05-03 07:55:00,45.6,32.1,30.34,ESE,122,1.0,3.0,59,0.00,,,0.00,185,Wunderground v.1.15,2013-05-03 12:55:00,
2013-05-03 08:00:00,46.1,32.1,30.34,East,86,2.0,3.0,58,0.00,,,0.00,207,Wunderground v.1.15,2013-05-03 13:00:00,
2013-05-03 08:05:00,46.7,32.3,30.35,SSE,163,2.0,3.0,57,0.00,,,0.00,230,Wunderground v.1.15,2013-05-03 13:05:00,
2013-05-03 08:10:00,47.2,32.3,30.35,ESE,105,1.0,1.0,56,0.00,,,0.00,248,Wunderground v.1.15,2013-05-03 13:10:00,
2013-05-03 08:15:00,47.6,32.7,30.35,NE,46,1.0,1.0,56,0.00,,,0.00,267,Wunderground v.1.15,2013-05-03 13:15:00,
2013-05-03 08:20:00,48.3,32.4,30.35,NW,315,1.0,5.0,54,0.00,,,0.00,287,Wunderground v.1.15,2013-05-03 13:20:00,
2013-05-03 08:25:00,48.8,32.9,30.35,ENE,74,1.0,5.0,54,0.00,,,0.00,308,Wunderground v.1.15,2013-05-03 13:25:00,
2013-05-03 08:30:00,49.3,32.9,30.35,South,171,1.0,2.0,53,0.00,,,0.00,327,Wunderground v.1.15,2013-05-03 13:30:00,
2013-05-03 08:35:00,49.7,32.3,30.35,East,83,1.0,6.0,51,0.00,,,0.00,348,Wunderground v.1.15,2013-05-03 13:35:00,
2013-05-03 08:45:00,50.4,31.9,30.35,ESE,119,2.0,2.0,49,0.00,,,0.00,383,Wunderground v.1.15,2013-05-03 13:45:00,
2013-05-03 08:50:00,50.7,32.2,30.35,South,169,2.0,2.0,49,0.00,,,0.00,403,Wunderground v.1.15,2013-05-03 13:50:00,
2013-05-03 08:55:00,51.2,33.2,30.35,SSW,197,2.0,2.0,50,0.00,,,0.00,422,Wunderground v.1.15,2013-05-03 13:55:00,
2013-05-03 09:00:00,51.7,32.1,30.34,ESE,123,2.0,2.0,47,0.00,,,0.00,441,Wunderground v.1.15,2013-05-03 14:00:00,
2013-05-03 09:05:00,51.8,31.7,30.34,ESE,108,3.0,4.0,46,0.00,,,0.00,461,Wunderground v.1.15,2013-05-03 14:05:00,
2013-05-03 09:15:00,52.9,32.1,30.35,ESE,102,2.0,2.0,45,0.00,,,0.00,494,Wunderground v.1.15,2013-05-03 14:15:00,
2013-05-03 09:20:00,53.2,31.8,30.35,ENE,61,3.0,3.0,44,0.00,,,0.00,513,Wunderground v.1.15,2013-05-03 14:20:00,
2013-05-03 09:25:00,53.7,31.7,30.35,SE,125,2.0,4.0,43,0.00,,,0.00,533,Wunderground v.1.15,2013-05-03 14:25:00,
2013-05-03 09:30:00,53.8,31.8,30.35,SSE,165,3.0,3.0,43,0.00,,,0.00,552,Wunderground v.1.15,2013-05-03 14:30:00,
2013-05-03 09:35:00,53.9,31.3,30.35,East,96,3.0,5.0,42,0.00,,,0.00,570,Wunderground v.1.15,2013-05-03 14:35:00,
2013-05-03 09:40:00,54.2,31.6,30.35,ESE,106,3.0,3.0,42,0.00,,,0.00,587,Wunderground v.1.15,2013-05-03 14:40:00,
2013-05-03 09:50:00,55.0,31.1,30.35,SSW,200,3.0,4.0,40,0.00,,,0.00,617,Wunderground v.1.15,2013-05-03 14:50:00,
2013-05-03 09:55:00,55.2,30.7,30.35,ESE,105,3.0,4.0,39,0.00,,,0.00,635,Wunderground v.1.15,2013-05-03 14:55:00,
2013-05-03 10:00:00,55.4,31.5,30.35,South,190,4.0,4.0,40,0.00,,,0.00,654,Wunderground v.1.15,2013-05-03 15:00:00,
2013-05-03 10:05:00,55.6,30.4,30.35,SSE,148,4.0,4.0,38,0.00,,,0.00,671,Wunderground v.1.15,2013-05-03 15:05:00,
2013-05-03 10:10:00,56.1,31.5,30.34,WSW,244,3.0,3.0,39,0.00,,,0.00,687,Wunderground v.1.15,2013-05-03 15:10:00,
2013-05-03 10:20:00,57.7,31.6,30.34,NNW,343,2.0,3.0,37,0.00,,,0.00,719,Wunderground v.1.15,2013-05-03 15:20:00,
2013-05-03 10:25:00,58.0,31.2,30.34,East,82,2.0,3.0,36,0.00,,,0.00,731,Wunderground v.1.15,2013-05-03 15:25:00,
2013-05-03 10:30:00,58.4,30.8,30.34,NE,53,2.0,2.0,35,0.00,,,0.00,745,Wunderground v.1.15,2013-05-03 15:30:00,
2013-05-03 10:35:00,58.2,30.7,30.34,East,100,3.0,6.0,35,0.00,,,0.00,759,Wunderground v.1.15,2013-05-03 15:35:00,
2013-05-03 10:40:00,58.5,30.9,30.34,West,265,2.0,2.0,35,0.00,,,0.00,773,Wunderground v.1.15,2013-05-03 15:40:00,
2013-05-03 10:45:00,59.0,30.6,30.34,ENE,68,2.0,3.0,34,0.00,,,0.00,788,Wunderground v.1.15,2013-05-03 15:45:00,
2013-05-03 10:50:00,59.5,31.1,30.34,ESE,111,2.0,8.0,34,0.00,,,0.00,803,Wunderground v.1.15,2013-05-03 15:50:00,
2013-05-03 10:55:00,59.5,30.3,30.34,SE,128,3.0,8.0,33,0.00,,,0.00,814,Wunderground v.1.15,2013-05-03 15:55:00,
2013-05-03 11:00:00,59.8,29.1,30.34,SSW,196,3.0,3.0,31,0.00,,,0.00,824,Wunderground v.1.15,2013-05-03 16:00:00,
2013-05-03 11:05:00,60.1,29.3,30.34,SSE,159,4.0,4.0,31,0.00,,,0.00,837,Wunderground v.1.15,2013-05-03 16:05:00,
2013-05-03 11:10:00,60.4,29.6,30.33,ESE,104,4.0,4.0,31,0.00,,,0.00,851,Wunderground v.1.15,2013-05-03 16:10:00,
2013-05-03 11:15:00,60.6,29.0,30.33,ENE,71,4.0,4.0,30,0.00,,,0.00,861,Wunderground v.1.15,2013-05-03 16:15:00,
2013-05-03 11:20:00,60.8,28.3,30.33,SE,135,4.0,6.0,29,0.00,,,0.00,874,Wunderground v.1.15,2013-05-03 16:20:00,
2013-05-03 11:25:00,61.2,28.7,30.33,ESE,106,4.0,6.0,29,0.00,,,0.00,888,Wunderground v.1.15,2013-05-03 16:25:00,
2013-05-03 11:30:00,61.5,28.1,30.33,ESE,112,3.0,3.0,28,0.00,,,0.00,896,Wunderground v.1.15,2013-05-03 16:30:00,
2013-05-03 11:35:00,62.0,29.3,30.33,East,94,3.0,3.0,29,0.00,,,0.00,902,Wunderground v.1.15,2013-05-03 16:35:00,
2013-05-03 11:40:00,62.4,28.8,30.32,SE,130,3.0,3.0,28,0.00,,,0.00,916,Wunderground v.1.15,2013-05-03 16:40:00,
2013-05-03 11:45:00,62.4,27.9,30.32,SE,126,4.0,4.0,27,0.00,,,0.00,926,Wunderground v.1.15,2013-05-03 16:45:00,
2013-05-03 11:50:00,62.2,28.7,30.31,NE,53,4.0,4.0,28,0.00,,,0.00,932,Wunderground v.1.15,2013-05-03 16:50:00,
2013-05-03 11:55:00,62.2,28.7,30.32,East,91,5.0,5.0,28,0.00,,,0.00,939,Wunderground v.1.15,2013-05-03 16:55:00,
2013-05-03 12:00:00,62.6,29.0,30.32,East,80,4.0,5.0,28,0.00,,,0.00,947,Wunderground v.1.15,2013-05-03 17:00:00,
2013-05-03 12:10:00,63.3,29.6,30.31,ESE,120,4.0,4.0,28,0.00,,,0.00,965,Wunderground v.1.15,2013-05-03 17:10:00,
2013-05-03 12:15:00,63.4,29.7,30.31,East,95,3.0,5.0,28,0.00,,,0.00,969,Wunderground v.1.15,2013-05-03 17:15:00,
2013-05-03 12:25:00,63.5,28.0,30.30,East,80,4.0,5.0,26,0.00,,,0.00,979,Wunderground v.1.15,2013-05-03 17:25:00,
2013-05-03 12:30:00,63.2,29.5,30.30,ENE,69,4.0,4.0,28,0.00,,,0.00,983,Wunderground v.1.15,2013-05-03 17:30:00,
2013-05-03 12:35:00,63.4,28.8,30.29,ESE,115,3.0,4.0,27,0.00,,,0.00,991,Wunderground v.1.15,2013-05-03 17:35:00,
2013-05-03 12:40:00,63.7,29.1,30.29,SE,133,3.0,3.0,27,0.00,,,0.00,995,Wunderground v.1.15,2013-05-03 17:40:00,
2013-05-03 12:45:00,63.8,29.1,30.28,ENE,77,4.0,4.0,27,0.00,,,0.00,995,Wunderground v.1.15,2013-05-03 17:45:00,
2013-05-03 12:50:00,64.6,29.8,30.28,ESE,109,3.0,4.0,27,0.00,,,0.00,1000,Wunderground v.1.15,2013-05-03 17:50:00,
2013-05-03 12:55:00,64.8,29.1,30.27,SSW,194,2.0,4.0,26,0.00,,,0.00,1002,Wunderground v.1.15,2013-05-03 17:55:00,
2013-05-03 13:00:00,65.3,28.5,30.27,SE,141,2.0,2.0,25,0.00,,,0.00,1011,Wunderground v.1.15,2013-05-03 18:00:00,
2013-05-03 13:05:00,65.6,28.8,30.27,East,98,2.0,2.0,25,0.00,,,0.00,1011,Wunderground v.1.15,2013-05-03 18:05:00,
2013-05-03 13:10:00,65.9,30.0,30.27,West,271,3.0,3.0,26,0.00,,,0.00,1011,Wunderground v.1.15,2013-05-03 18:10:00,
2013-05-03 13:15:00,66.3,29.4,30.26,South,189,3.0,3.0,25,0.00,,,0.00,1011,Wunderground v.1.15,2013-05-03 18:15:00,
2013-05-03 13:20:00,66.6,29.6,30.26,ENE,62,2.0,2.0,25,0.00,,,0.00,1009,Wunderground v.1.15,2013-05-03 18:20:00,
2013-05-03 13:25:00,66.4,29.5,30.25,East,94,3.0,3.0,25,0.00,,,0.00,1009,Wunderground v.1.15,2013-05-03 18:25:00,
2013-05-03 13:30:00,66.3,27.4,30.25,NE,46,3.0,3.0,23,0.00,,,0.00,1011,Wunderground v.1.15,2013-05-03 18:30:00,
2013-05-03 13:35:00,66.3,26.3,30.25,East,84,3.0,5.0,22,0.00,,,0.00,1002,Wunderground v.1.15,2013-05-03 18:35:00,
2013-05-03 13:45:00,66.8,26.7,30.24,ESE,109,3.0,4.0,22,0.00,,,0.00,1009,Wunderground v.1.15,2013-05-03 18:45:00,
2013-05-03 13:50:00,67.3,27.1,30.23,SE,131,3.0,3.0,22,0.00,,,0.00,1005,Wunderground v.1.15,2013-05-03 18:50:00,
2013-05-03 13:55:00,67.3,27.1,30.23,East,84,3.0,5.0,22,0.00,,,0.00,997,Wunderground v.1.15,2013-05-03 18:55:00,
2013-05-03 14:00:00,66.9,27.9,30.23,East,91,3.0,3.0,23,0.00,,,0.00,995,Wunderground v.1.15,2013-05-03 19:00:00,
2013-05-03 14:05:00,67.2,27.0,30.23,ESE,108,3.0,4.0,22,0.00,,,0.00,991,Wunderground v.1.15,2013-05-03 19:05:00,
2013-05-03 14:15:00,67.1,26.9,30.22,SSE,157,4.0,4.0,22,0.00,,,0.00,979,Wunderground v.1.15,2013-05-03 19:15:00,
2013-05-03 14:20:00,67.8,27.5,30.22,SSW,195,3.0,3.0,22,0.00,,,0.00,976,Wunderground v.1.15,2013-05-03 19:20:00,
2013-05-03 14:30:00,68.6,28.2,30.21,East,88,3.0,3.0,22,0.00,,,0.00,967,Wunderground v.1.15,2013-05-03 19:30:00,
2013-05-03 14:35:00,68.1,25.5,30.21,East,88,3.0,3.0,20,0.00,,,0.00,960,Wunderground v.1.15,2013-05-03 19:35:00,
2013-05-03 14:40:00,68.1,28.9,30.21,ENE,71,3.0,4.0,23,0.00,,,0.00,949,Wunderground v.1.15,2013-05-03 19:40:00,
2013-05-03 14:45:00,68.3,25.6,30.20,East,97,2.0,4.0,20,0.00,,,0.00,932,Wunderground v.1.15,2013-05-03 19:45:00,
2013-05-03 14:55:00,68.4,28.0,30.20,East,83,2.0,2.0,22,0.00,,,0.00,930,Wunderground v.1.15,2013-05-03 19:55:00,
2013-05-03 15:00:00,68.5,27.0,30.19,SE,134,3.0,3.0,21,0.00,,,0.00,919,Wunderground v.1.15,2013-05-03 20:00:00,
2013-05-03 15:05:00,68.5,27.0,30.19,East,85,2.0,3.0,21,0.00,,,0.00,912,Wunderground v.1.15,2013-05-03 20:05:00,
2013-05-03 15:10:00,68.7,27.2,30.18,NE,55,2.0,5.0,21,0.00,,,0.00,902,Wunderground v.1.15,2013-05-03 20:10:00,
2013-05-03 15:15:00,69.1,27.5,30.18,WSW,241,2.0,8.0,21,0.00,,,0.00,893,Wunderground v.1.15,2013-05-03 20:15:00,
2013-05-03 15:25:00,69.0,27.4,30.18,East,82,2.0,3.0,21,0.00,,,0.00,868,Wunderground v.1.15,2013-05-03 20:25:00,
2013-05-03 15:30:00,69.0,27.4,30.17,ESE,122,2.0,2.0,21,0.00,,,0.00,860,Wunderground v.1.15,2013-05-03 20:30:00,
2013-05-03 15:40:00,69.4,27.7,30.17,South,178,2.0,4.0,21,0.00,,,0.00,835,Wunderground v.1.15,2013-05-03 20:40:00,
2013-05-03 15:45:00,69.4,27.7,30.17,SE,131,2.0,4.0,21,0.00,,,0.00,819,Wunderground v.1.15,2013-05-03 20:45:00,
2013-05-03 15:50:00,69.0,28.5,30.16,East,93,3.0,3.0,22,0.00,,,0.00,809,Wunderground v.1.15,2013-05-03 20:50:00,
2013-05-03 15:55:00,69.5,26.6,30.16,NE,49,2.0,3.0,20,0.00,,,0.00,795,Wunderground v.1.15,2013-05-03 20:55:00,
2013-05-03 16:00:00,69.8,25.6,30.15,ESE,121,2.0,2.0,19,0.00,,,0.00,779,Wunderground v.1.15,2013-05-03 21:00:00,
2013-05-03 16:05:00,70.0,25.8,30.15,East,101,2.0,2.0,19,0.00,,,0.00,768,Wunderground v.1.15,2013-05-03 21:05:00,
2013-05-03 16:10:00,69.7,26.8,30.15,ENE,74,2.0,2.0,20,0.00,,,0.00,758,Wunderground v.1.15,2013-05-03 21:10:00,
2013-05-03 16:15:00,69.9,27.0,30.15,ESE,104,2.0,2.0,20,0.00,,,0.00,740,Wunderground v.1.15,2013-05-03 21:15:00,
2013-05-03 16:20:00,69.4,26.6,30.14,NNW,342,2.0,2.0,20,0.00,,,0.00,726,Wunderground v.1.15,2013-05-03 21:20:00,
2013-05-03 16:25:00,69.4,26.6,30.14,SE,138,2.0,2.0,20,0.00,,,0.00,712,Wunderground v.1.15,2013-05-03 21:25:00,
2013-05-03 16:30:00,69.6,26.7,30.14,South,184,2.0,2.0,20,0.00,,,0.00,696,Wunderground v.1.15,2013-05-03 21:30:00,
2013-05-03 16:35:00,69.7,28.0,30.14,SSE,157,2.0,5.0,21,0.00,,,0.00,682,Wunderground v.1.15,2013-05-03 21:35:00,
2013-05-03 16:40:00,69.7,28.0,30.13,ENE,73,2.0,2.0,21,0.00,,,0.00,663,Wunderground v.1.15,2013-05-03 21:40:00,
2013-05-03 16:45:00,69.9,25.7,30.13,SW,228,2.0,2.0,19,0.00,,,0.00,652,Wunderground v.1.15,2013-05-03 21:45:00,
2013-05-03 16:50:00,69.8,26.9,30.12,ESE,113,1.0,1.0,20,0.00,,,0.00,635,Wunderground v.1.15,2013-05-03 21:50:00,
2013-05-03 16:55:00,70.1,27.1,30.12,ESE,119,1.0,3.0,20,0.00,,,0.00,617,Wunderground v.1.15,2013-05-03 21:55:00,
2013-05-03 17:00:00,70.1,27.1,30.12,ESE,115,2.0,2.0,20,0.00,,,0.00,601,Wunderground v.1.15,2013-05-03 22:00:00,
2013-05-03 17:05:00,69.6,26.7,30.12,ESE,112,3.0,3.0,20,0.00,,,0.00,582,Wunderground v.1.15,2013-05-03 22:05:00,
2013-05-03 17:10:00,69.7,26.8,30.11,SE,138,2.0,3.0,20,0.00,,,0.00,566,Wunderground v.1.15,2013-05-03 22:10:00,
2013-05-03 17:15:00,69.9,25.7,30.11,ESE,111,2.0,3.0,19,0.00,,,0.00,547,Wunderground v.1.15,2013-05-03 22:15:00,
2013-05-03 17:20:00,69.7,26.8,30.11,ENE,78,2.0,2.0,20,0.00,,,0.00,534,Wunderground v.1.15,2013-05-03 22:20:00,
2013-05-03 17:30:00,69.9,25.7,30.11,ESE,122,1.0,1.0,19,0.00,,,0.00,496,Wunderground v.1.15,2013-05-03 22:30:00,
2013-05-03 17:35:00,69.6,25.5,30.10,SE,144,2.0,2.0,19,0.00,,,0.00,476,Wunderground v.1.15,2013-05-03 22:35:00,
2013-05-03 17:40:00,68.9,26.1,30.10,East,86,2.0,2.0,20,0.00,,,0.00,459,Wunderground v.1.15,2013-05-03 22:40:00,
2013-05-03 17:45:00,68.9,27.3,30.10,ESE,117,2.0,2.0,21,0.00,,,0.00,441,Wunderground v.1.15,2013-05-03 22:45:00,
2013-05-03 17:50:00,69.2,26.4,30.10,ENE,73,2.0,2.0,20,0.00,,,0.00,422,Wunderground v.1.15,2013-05-03 22:50:00,
2013-05-03 18:00:00,69.0,26.2,30.10,East,94,1.0,2.0,20,0.00,,,0.00,387,Wunderground v.1.15,2013-05-03 23:00:00,
2013-05-03 18:10:00,68.8,27.2,30.09,ESE,113,1.0,1.0,21,0.00,,,0.00,352,Wunderground v.1.15,2013-05-03 23:10:00,
2013-05-03 18:15:00,68.7,26.0,30.09,SE,146,1.0,1.0,20,0.00,,,0.00,329,Wunderground v.1.15,2013-05-03 23:15:00,
2013-05-03 18:20:00,68.6,28.2,30.09,SW,220,1.0,1.0,22,0.00,,,0.00,309,Wunderground v.1.15,2013-05-03 23:20:00,
2013-05-03 18:30:00,68.0,26.6,30.09,ESE,115,1.0,2.0,21,0.00,,,0.00,274,Wunderground v.1.15,2013-05-03 23:30:00,
2013-05-03 18:40:00,67.3,26.0,30.09,SE,141,1.0,1.0,21,0.00,,,0.00,40,Wunderground v.1.15,2013-05-03 23:40:00,
2013-05-03 18:45:00,67.1,25.8,30.09,ENE,77,1.0,1.0,21,0.00,,,0.00,39,Wunderground v.1.15,2013-05-03 23:45:00,
2013-05-03 18:50:00,66.9,25.7,30.09,ESE,113,1.0,1.0,21,0.00,,,0.00,39,Wunderground v.1.15,2013-05-03 23:50:00,
2013-05-03 18:55:00,66.7,26.6,30.08,ESE,113,1.0,1.0,22,0.00,,,0.00,35,Wunderground v.1.15,2013-05-03 23:55:00,
2013-05-03 19:00:00,66.3,26.3,30.08,ESE,109,0.0,0.0,22,0.00,,,0.00,35,Wunderground v.1.15,2013-05-04 00:00:00,
2013-05-03 19:05:00,65.9,27.0,30.08,East,85,0.0,0.0,23,0.00,,,0.00,33,Wunderground v.1.15,2013-05-04 00:05:00,
2013-05-03 19:15:00,65.4,26.6,30.08,ENE,74,0.0,0.0,23,0.00,,,0.00,30,Wunderground v.1.15,2013-05-04 00:15:00,
2013-05-03 19:20:00,65.2,26.4,30.08,East,100,0.0,0.0,23,0.00,,,0.00,28,Wunderground v.1.15,2013-05-04 00:20:00,
2013-05-03 19:25:00,65.0,26.3,30.08,ESE,103,0.0,0.0,23,0.00,,,0.00,26,Wunderground v.1.15,2013-05-04 00:25:00,
2013-05-03 19:30:00,64.7,27.0,30.08,ESE,103,0.0,0.0,24,0.00,,,0.00,25,Wunderground v.1.15,2013-05-04 00:30:00,
2013-05-03 19:35:00,64.3,27.7,30.08,ESE,103,0.0,0.0,25,0.00,,,0.00,21,Wunderground v.1.15,2013-05-04 00:35:00,
2013-05-03 19:45:00,63.4,27.9,30.08,ESE,103,0.0,0.0,26,0.00,,,0.00,18,Wunderground v.1.15,2013-05-04 00:45:00,
2013-05-03 19:50:00,62.9,28.4,30.08,ESE,103,0.0,0.0,27,0.00,,,0.00,14,Wunderground v.1.15,2013-05-04 00:50:00,
2013-05-03 19:55:00,62.5,28.0,30.08,ESE,103,0.0,0.0,27,0.00,,,0.00,12,Wunderground v.1.15,2013-05-04 00:55:00,
2013-05-03 20:00:00,62.1,29.4,30.08,ESE,103,0.0,0.0,29,0.00,,,0.00,9,Wunderground v.1.15,2013-05-04 01:00:00,
2013-05-03 20:05:00,61.5,28.9,30.08,ESE,103,0.0,0.0,29,0.00,,,0.00,7,Wunderground v.1.15,2013-05-04 01:05:00,
2013-05-03 20:10:00,60.9,30.0,30.09,ESE,103,0.0,0.0,31,0.00,,,0.00,5,Wunderground v.1.15,2013-05-04 01:10:00,
2013-05-03 20:20:00,59.2,33.6,30.09,ESE,103,0.0,0.0,38,0.00,,,0.00,0,Wunderground v.1.15,2013-05-04 01:20:00,
2013-05-03 20:25:00,58.2,32.0,30.09,ESE,103,0.0,0.0,37,0.00,,,0.00,0,Wunderground v.1.15,2013-05-04 01:25:00,
2013-05-03 20:30:00,57.0,33.5,30.09,ESE,103,0.0,0.0,41,0.00,,,0.00,0,Wunderground v.1.15,2013-05-04 01:30:00,
2013-05-03 20:35:00,56.2,33.4,30.09,ESE,103,0.0,0.0,42,0.00,,,0.00,0,Wunderground v.1.15,2013-05-04 01:35:00,
2013-05-03 20:40:00,55.4,32.7,30.09,ESE,103,0.0,0.0,42,0.00,,,0.00,0,Wunderground v.1.15,2013-05-04 01:40:00,
2013-05-03 20:50:00,53.8,32.4,30.10,ESE,103,0.0,0.0,44,0.00,,,0.00,0,Wunderground v.1.15,2013-05-04 01:50:00,
2013-05-03 20:55:00,53.1,32.8,30.10,ESE,103,0.0,0.0,46,0.00,,,0.00,0,Wunderground v.1.15,2013-05-04 01:55:00,
2013-05-03 21:00:00,52.4,34.8,30.10,ESE,103,0.0,0.0,51,0.00,,,0.00,0,Wunderground v.1.15,2013-05-04 02:00:00,
2013-05-03 21:05:00,51.7,36.0,30.10,ESE,103,0.0,0.0,55,0.00,,,0.00,0,Wunderground v.1.15,2013-05-04 02:05:00,
2013-05-03 21:10:00,51.1,35.0,30.10,ESE,103,0.0,0.0,54,0.00,,,0.00,0,Wunderground v.1.15,2013-05-04 02:10:00,
2013-05-03 21:15:00,50.5,34.5,30.10,ESE,103,0.0,0.0,54,0.00,,,0.00,0,Wunderground v.1.15,2013-05-04 02:15:00,
2013-05-03 21:20:00,50.0,33.5,30.11,ESE,103,0.0,0.0,53,0.00,,,0.00,0,Wunderground v.1.15,2013-05-04 02:20:00,
2013-05-03 21:25:00,49.5,33.5,30.11,ESE,103,0.0,0.0,54,0.00,,,0.00,0,Wunderground v.1.15,2013-05-04 02:25:00,
2013-05-03 21:30:00,48.8,34.7,30.11,ESE,103,0.0,0.0,58,0.00,,,0.00,0,Wunderground v.1.15,2013-05-04 02:30:00,
2013-05-03 21:35:00,48.0,33.9,30.11,ESE,103,0.0,0.0,58,0.00,,,0.00,0,Wunderground v.1.15,2013-05-04 02:35:00,
2013-05-03 21:40:00,47.6,33.5,30.11,ESE,103,0.0,0.0,58,0.00,,,0.00,0,Wunderground v.1.15,2013-05-04 02:40:00,
2013-05-03 21:45:00,47.2,34.4,30.11,ESE,103,0.0,0.0,61,0.00,,,0.00,0,Wunderground v.1.15,2013-05-04 02:45:00,
2013-05-03 21:50:00,46.9,33.7,30.12,ESE,103,0.0,0.0,60,0.00,,,0.00,0,Wunderground v.1.15,2013-05-04 02:50:00,
2013-05-03 21:55:00,46.3,34.0,30.12,ESE,103,0.0,0.0,62,0.00,,,0.00,0,Wunderground v.1.15,2013-05-04 02:55:00,
2013-05-03 22:00:00,45.9,34.0,30.12,ESE,103,0.0,0.0,63,0.00,,,0.00,0,Wunderground v.1.15,2013-05-04 03:00:00,
2013-05-03 22:05:00,45.5,34.4,30.12,ESE,103,0.0,0.0,65,0.00,,,0.00,0,Wunderground v.1.15,2013-05-04 03:05:00,
2013-05-03 22:10:00,45.2,33.7,30.12,ESE,103,0.0,0.0,64,0.00,,,0.00,0,Wunderground v.1.15,2013-05-04 03:10:00,
2013-05-03 22:15:00,44.8,33.0,30.12,ESE,103,0.0,0.0,63,0.00,,,0.00,0,Wunderground v.1.15,2013-05-04 03:15:00,
2013-05-03 22:20:00,44.4,33.0,30.12,ESE,103,0.0,0.0,64,0.00,,,0.00,0,Wunderground v.1.15,2013-05-04 03:20:00,
2013-05-03 22:30:00,43.6,33.7,30.12,ESE,103,0.0,0.0,68,0.00,,,0.00,0,Wunderground v.1.15,2013-05-04 03:30:00,
2013-05-03 22:35:00,43.2,33.0,30.12,ESE,103,0.0,0.0,67,0.00,,,0.00,0,Wunderground v.1.15,2013-05-04 03:35:00,
2013-05-03 22:45:00,42.7,32.9,30.11,ESE,103,0.0,0.0,68,0.00,,,0.00,0,Wunderground v.1.15,2013-05-04 03:45:00,
2013-05-03 22:50:00,42.5,33.0,30.11,ESE,103,0.0,0.0,69,0.00,,,0.00,0,Wunderground v.1.15,2013-05-04 03:50:00,
2013-05-03 23:00:00,41.7,32.6,30.11,ESE,103,0.0,0.0,70,0.00,,,0.00,0,Wunderground v.1.15,2013-05-04 04:00:00,
2013-05-03 23:05:00,41.4,32.3,30.11,ESE,103,0.0,0.0,70,0.00,,,0.00,0,Wunderground v.1.15,2013-05-04 04:05:00,
2013-05-03 23:10:00,41.1,32.4,30.11,ESE,103,0.0,0.0,71,0.00,,,0.00,0,Wunderground v.1.15,2013-05-04 04:10:00,
2013-05-03 23:15:00,40.9,32.2,30.11,ESE,103,0.0,0.0,71,0.00,,,0.00,0,Wunderground v.1.15,2013-05-04 04:15:00,
2013-05-03 23:20:00,40.6,32.6,30.10,ESE,103,0.0,0.0,73,0.00,,,0.00,0,Wunderground v.1.15,2013-05-04 04:20:00,
2013-05-03 23:25:00,40.3,32.7,30.10,ESE,103,0.0,0.0,74,0.00,,,0.00,0,Wunderground v.1.15,2013-05-04 04:25:00,
2013-05-03 23:30:00,39.9,32.6,30.10,ESE,103,0.0,0.0,75,0.00,,,0.00,0,Wunderground v.1.15,2013-05-04 04:30:00,
2013-05-03 23:35:00,39.6,32.0,30.10,ESE,103,0.0,0.0,74,0.00,,,0.00,0,Wunderground v.1.15,2013-05-04 04:35:00,
2013-05-03 23:40:00,39.5,31.9,30.10,ESE,103,0.0,0.0,74,0.00,,,0.00,0,Wunderground v.1.15,2013-05-04 04:40:00,
2013-05-03 23:45:00,39.3,32.4,30.10,ESE,103,0.0,0.0,76,0.00,,,0.00,0,Wunderground v.1.15,2013-05-04 04:45:00,
2013-05-03 23:55:00,38.9,31.6,30.08,ESE,103,0.0,0.0,75,0.00,,,0.00,0,Wunderground v.1.15,2013-05-04 04:55:00,